Location: Chippewa Lake
(41.0698°N, 81.9010°W)
Time: 05:14:42
(UTC+00:00)

SL-8 Rocket - Pass Details

Date: 03 October 2021
Orbit: 958 x 990 km, 82.9° (Epoch: 17 October)

Event Time Altitude Azimuth Distance (km) Brightness Sun altitude
Rises 10:43:55 0° 1° (N) 3,703 7.1 -8.9°
Reaches altitude 10° 10:46:44 10° 10° (N) 2,747 6.5 -8.3°
Maximum altitude 10:52:23 34° 74° (ENE) 1,559 6.0 -7.3°
Drops below altitude 10° 10:57:57 10° 138° (SE) 2,712 7.0 -6.2°
Sets 11:00:42 0° 147° (SSE) 3,650 7.5 -5.7°
